Regional Weather Roundup
Issued by NWS

Home | Current Version | Previous Version | Graphics & Text | Print | Product List | Glossary Off
Versions: 1 2 3 4 5 6 7 8 9 10 11 12 13 14 15 16 17 18 19 20 21 22 23 24 25 26 27 28 29 30 31 32 33 34 35 36 37 38 39 40 41 42 43 44 45 46 47 48 49 50

000
ASUS43 KLSX 302207
RWRMO

WEATHER SUMMARY FOR MISSOURI
NATIONAL WEATHER SERVICE SPRINGFIELD MO
500 PM CDT THU OCT 30 2014

NOTE: "FAIR" INDICATES FEW OR NO CLOUDS BELOW 12,000 FEET WITH NO
       SIGNIFICANT WEATHER AND/OR OBSTRUCTIONS TO VISIBILITY.
       CURRENT SKY AND/OR WEATHER CONDITIONS ARE NOT AVAILABLE FOR
       CHILLICOTHE AND FARMINGTON.

MOZ001>031-035>038-043-044-053-054-302300-
...NORTHERN AND WESTERN MISSOURI...

CITY           SKY/WX    TMP DP  RH WIND       PRES   REMARKS
KANSAS CTY INT MOSUNNY   64  42  44 NW15G23   30.04R
KANSAS C DTWN  SUNNY     67  39  35 NW17G25   30.02R
LEE`S SUMMIT   SUNNY     65  39  38 NW21G28   30.03R
ST JOSEPH      MOSUNNY   65  41  41 NW21      30.06R
CHILLICOTHE      N/A     65  41  41 VRB6      30.02R
KIRKSVILLE     SUNNY     62  45  53 N3        30.01R

$$
MOZ066>068-077>081-088>096-101>105-302300-
...SOUTHWEST MISSOURI...

CITY           SKY/WX    TMP DP  RH WIND       PRES   REMARKS
SPRINGFIELD    SUNNY     66  41  40 NW12      30.01R
JOPLIN         SUNNY     68  39  34 N15G25    30.04R

$$
MOZ032>034-039>042-045>050-055>058-069>072-302300-
...CENTRAL MISSOURI...

CITY           SKY/WX    TMP DP  RH WIND       PRES   REMARKS
COLUMBIA       SUNNY     59  48  67 SW7       30.00R
JEFFERSON CITY MOSUNNY   59  48  67 S7        30.00R
ROLLA          PTSUNNY   53  48  83 S9        29.99R
SEDALIA        SUNNY     66  42  41 NW10      30.00R
WHITEMAN AFB   SUNNY     66  40  38 NW17      29.99R
OSAGE BEACH    SUNNY     63  46  55 SE3       29.99S

$$
MOZ051-052-059>065-302300-
...EAST CENTRAL MISSOURI...

CITY           SKY/WX    TMP DP  RH WIND       PRES   REMARKS
ST LOUIS INTL  CLOUDY    59  42  53 SW6       30.02R
SPIRIT OF STL  CLOUDY    54  47  77 CALM      30.01R
ST CHARLES     CLOUDY    55  48  77 CALM      30.01R

$$
MOZ072>076-082>087-097>100-106>115-302300-
...SOUTH CENTRAL AND SOUTHEAST MISSOURI...

CITY           SKY/WX    TMP DP  RH WIND       PRES   REMARKS
CAPE GIRARDEAU CLOUDY    60  43  53 S5        30.03F
FARMINGTON     CLOUDY    55  45  67 CALM      30.06R
POPLAR BLUFF   CLOUDY    62  43  49 CALM      30.01F
WEST PLAINS    CLOUDY    60  41  49 S5        30.01F

$$



USA.gov is the U.S. government's official web portal to all federal, state and local government web resources and services.